TimeCST,TemperatureF,Dew PointF,Humidity,Sea Level PressureIn,VisibilityMPH,Wind Direction,Wind SpeedMPH,Gust SpeedMPH,PrecipitationIn,Events,Conditions,WindDirDegrees,DateUTC
12:15 AM,15.8,10.4,79,30.05,7.0,NW,20.7,-,N/A,,Overcast,320,2012-12-31 06:15:00
12:35 AM,15.8,10.4,79,30.06,7.0,NW,17.3,23.0,N/A,,Overcast,310,2012-12-31 06:35:00
12:55 AM,15.8,8.6,73,30.07,10.0,NW,16.1,-,N/A,,Overcast,310,2012-12-31 06:55:00
1:15 AM,14.0,8.6,79,30.07,10.0,NNW,13.8,-,N/A,,Overcast,330,2012-12-31 07:15:00
1:35 AM,15.8,8.6,73,30.07,10.0,NW,11.5,-,N/A,,Overcast,320,2012-12-31 07:35:00
1:55 AM,15.8,8.6,73,30.07,10.0,NW,12.7,-,N/A,Snow,Light Snow,310,2012-12-31 07:55:00
2:15 AM,14.0,8.6,79,30.08,10.0,NW,12.7,-,N/A,Snow,Light Snow,320,2012-12-31 08:15:00
2:35 AM,15.8,8.6,73,30.10,10.0,NW,13.8,18.4,N/A,Snow,Light Snow,310,2012-12-31 08:35:00
2:56 AM,15.8,8.6,73,30.12,10.0,WNW,12.7,-,N/A,Snow,Light Snow,300,2012-12-31 08:56:00
3:15 AM,15.8,8.6,73,30.13,10.0,WNW,12.7,-,N/A,Snow,Light Snow,300,2012-12-31 09:15:00
3:35 AM,15.8,8.6,73,30.13,7.0,NW,17.3,20.7,N/A,Snow,Light Snow,310,2012-12-31 09:35:00
3:56 AM,15.8,8.6,73,30.12,7.0,NW,17.3,25.3,N/A,Snow,Light Snow,310,2012-12-31 09:56:00
4:15 AM,15.8,6.8,68,30.12,7.0,NW,20.7,28.8,N/A,Snow,Light Snow,310,2012-12-31 10:15:00
4:35 AM,14.0,6.8,73,30.13,7.0,NW,21.9,26.5,N/A,,Overcast,320,2012-12-31 10:35:00
4:56 AM,14.0,6.8,73,30.13,10.0,NW,19.6,23.0,N/A,,Overcast,310,2012-12-31 10:56:00
5:15 AM,12.2,6.8,79,30.13,10.0,NW,20.7,24.2,N/A,,Overcast,320,2012-12-31 11:15:00
5:35 AM,12.2,5.0,73,30.13,7.0,NW,19.6,-,N/A,,Overcast,320,2012-12-31 11:35:00
5:56 AM,12.2,3.2,67,30.16,10.0,NW,17.3,-,N/A,,Overcast,320,2012-12-31 11:56:00
6:15 AM,10.4,3.2,73,30.17,10.0,NNW,20.7,-,N/A,,Mostly Cloudy,330,2012-12-31 12:15:00
6:35 AM,8.6,1.4,73,30.17,10.0,NNW,20.7,-,N/A,,Clear,340,2012-12-31 12:35:00
6:56 AM,8.6,-0.4,67,30.18,10.0,NNW,11.5,-,N/A,,Clear,330,2012-12-31 12:56:00
7:15 AM,6.8,-0.4,72,30.17,10.0,NW,11.5,-,N/A,,Clear,310,2012-12-31 13:15:00
7:35 AM,6.8,-2.2,67,30.18,10.0,NW,10.4,-,N/A,,Clear,310,2012-12-31 13:35:00
7:56 AM,5.0,-4.0,66,30.19,10.0,NW,9.2,-,N/A,,Clear,310,2012-12-31 13:56:00
8:15 AM,3.2,-5.8,66,30.18,10.0,NW,9.2,-,N/A,,Clear,310,2012-12-31 14:15:00
8:35 AM,1.4,-5.8,72,30.20,10.0,NW,8.1,-,N/A,,Clear,320,2012-12-31 14:35:00
8:56 AM,1.4,-5.8,72,30.20,10.0,NNW,10.4,-,N/A,,Clear,330,2012-12-31 14:56:00
9:15 AM,1.4,-5.8,72,30.21,10.0,NW,9.2,-,N/A,,Clear,320,2012-12-31 15:15:00
9:35 AM,3.2,-5.8,66,30.22,10.0,NW,12.7,-,N/A,,Clear,320,2012-12-31 15:35:00
9:55 AM,3.2,-5.8,66,30.23,10.0,NW,10.4,-,N/A,,Clear,320,2012-12-31 15:55:00
10:15 AM,3.2,-5.8,66,30.23,10.0,NW,13.8,-,N/A,,Clear,320,2012-12-31 16:15:00
10:35 AM,1.4,-5.8,72,30.23,10.0,NW,12.7,-,N/A,,Clear,320,2012-12-31 16:35:00
10:55 AM,1.4,-5.8,72,30.22,10.0,NW,9.2,-,N/A,,Clear,310,2012-12-31 16:55:00
11:15 AM,1.4,-5.8,72,30.22,10.0,NW,11.5,-,N/A,,Clear,310,2012-12-31 17:15:00
11:35 AM,3.2,-5.8,66,30.21,10.0,NW,10.4,-,N/A,,Clear,310,2012-12-31 17:35:00
11:55 AM,3.2,-5.8,66,30.21,10.0,NW,10.4,-,N/A,,Clear,310,2012-12-31 17:55:00
12:15 PM,3.2,-5.8,66,30.20,10.0,NW,10.4,-,N/A,,Clear,310,2012-12-31 18:15:00
12:35 PM,3.2,-5.8,66,30.20,10.0,NW,10.4,-,N/A,,Clear,310,2012-12-31 18:35:00
12:55 PM,5.0,-5.8,61,30.20,10.0,WNW,8.1,-,N/A,,Clear,300,2012-12-31 18:55:00
1:15 PM,5.0,-4.0,66,30.20,10.0,WNW,8.1,-,N/A,,Clear,290,2012-12-31 19:15:00
1:35 PM,5.0,-4.0,66,30.20,10.0,WNW,9.2,-,N/A,,Clear,300,2012-12-31 19:35:00
1:55 PM,5.0,-5.8,61,30.20,10.0,WNW,8.1,-,N/A,,Clear,290,2012-12-31 19:55:00
2:15 PM,5.0,-5.8,61,30.21,10.0,WNW,8.1,-,N/A,,Clear,290,2012-12-31 20:15:00
2:35 PM,5.0,-5.8,61,30.21,10.0,WNW,8.1,-,N/A,,Clear,290,2012-12-31 20:35:00
2:55 PM,5.0,-4.0,66,30.21,10.0,WNW,8.1,-,N/A,,Clear,300,2012-12-31 20:55:00
3:15 PM,3.2,-4.0,72,30.22,10.0,WNW,8.1,-,N/A,,Clear,300,2012-12-31 21:15:00
3:35 PM,3.2,-4.0,72,30.22,10.0,West,6.9,-,N/A,,Clear,280,2012-12-31 21:35:00
3:55 PM,3.2,-5.8,66,30.22,10.0,WNW,5.8,-,N/A,,Clear,290,2012-12-31 21:55:00
4:35 PM,1.4,-5.8,72,30.24,10.0,WNW,6.9,-,N/A,,Clear,300,2012-12-31 22:35:00
4:55 PM,1.4,-5.8,72,30.23,10.0,WNW,8.1,-,N/A,,Clear,300,2012-12-31 22:55:00
5:15 PM,1.4,-7.6,66,30.23,10.0,NW,6.9,-,N/A,,Clear,320,2012-12-31 23:15:00
5:35 PM,-0.4,-7.6,72,30.23,10.0,NW,8.1,-,N/A,,Clear,310,2012-12-31 23:35:00
5:59 PM,-0.4,-7.6,72,30.23,10.0,NW,5.8,-,N/A,,Clear,320,2012-12-31 23:59:00
6:35 PM,-2.2,-9.4,71,30.23,10.0,NW,4.6,-,N/A,,Clear,310,2013-01-01 00:35:00
7:15 PM,-5.8,-11.2,77,30.24,10.0,WNW,6.9,-,N/A,,Clear,300,2013-01-01 01:15:00
7:35 PM,-2.2,-9.4,71,30.24,10.0,NW,6.9,-,N/A,,Clear,320,2013-01-01 01:35:00
7:55 PM,-5.8,-11.2,77,30.23,10.0,NW,5.8,-,N/A,,Clear,320,2013-01-01 01:55:00
8:15 PM,-5.8,-11.2,77,30.23,10.0,NNW,5.8,-,N/A,,Clear,340,2013-01-01 02:15:00
8:35 PM,-5.8,-11.2,77,30.23,10.0,NNW,3.5,-,N/A,,Clear,330,2013-01-01 02:35:00
8:55 PM,-5.8,-11.2,77,30.23,10.0,Calm,Calm,-,N/A,,Clear,0,2013-01-01 02:55:00
9:15 PM,-7.6,-14.8,71,30.23,10.0,Calm,Calm,-,N/A,,Clear,0,2013-01-01 03:15:00
9:35 PM,-7.6,-11.2,84,30.23,10.0,Calm,Calm,-,N/A,,Clear,0,2013-01-01 03:35:00
9:55 PM,-7.6,-13.0,77,30.23,10.0,West,4.6,-,N/A,,Clear,280,2013-01-01 03:55:00
10:15 PM,-7.6,-13.0,77,30.23,10.0,NW,5.8,-,N/A,,Clear,320,2013-01-01 04:15:00
10:35 PM,-7.6,-14.8,71,30.24,10.0,NW,4.6,-,N/A,,Clear,310,2013-01-01 04:35:00
10:55 PM,-9.4,-14.8,77,30.24,10.0,Calm,Calm,-,N/A,,Clear,0,2013-01-01 04:55:00
11:16 PM,-9.4,-14.8,77,30.25,10.0,Calm,Calm,-,N/A,,Clear,0,2013-01-01 05:16:00
11:35 PM,-7.6,-14.8,71,30.25,10.0,Calm,Calm,-,N/A,,Clear,0,2013-01-01 05:35:00